User: anonymous   Login
Location: Pel�-Koumbol�
(14.9505°N, 3.0798°W)
Time: 06:37:28
(UTC+00:00)
Language:

STARLINK-1011 - Orbit

View from above orbital plane
View from above orbital plane
View from above satellite
View from above satellite

Ground track
Ground track

The orbit data is extracted from the following two-line orbital elements,

1 44717C 19074E   20153.14874381  .00001532  00000-0  10491-3 0  1532
2 44717  52.9995 307.7406 0001315 108.3921 178.1262 15.05582129    11
Epoch (UTC): 01 June 2020 03:34:11
Eccentricity: 0.0001315
inclination: 52.9995°
perigee height: 549 km
apogee height: 550 km
right ascension of ascending node: 307.7406°
argument of perigee: 108.3921°
revolutions per day: 15.05582129
mean anomaly at epoch: 178.1262°
orbit number at epoch: 1

The dashed part of the orbit path shows where the satellite is in the earth's shadow,  

DLR